User: anonymous   Login
Location: ??????????
(42.1626°N, 44.1160°E)
Time: 02:03:55
(UTC+00:00)
Language:

SJ-6B - Orbit

View from above orbital plane
View from above orbital plane
View from above satellite
View from above satellite

Ground track
Ground track

The orbit data is extracted from the following two-line orbital elements,

1 28415U 04035C   21127.53530766  .00000545  00000-0  39586-4 0  9999
2 28415  97.5690 170.7497 0050401 328.4990  31.3222 15.07099111912445
Epoch (UTC): 07 May 2021 12:50:50
Eccentricity: 0.0050401
inclination: 97.5690°
perigee height: 510 km
apogee height: 580 km
right ascension of ascending node: 170.7497°
argument of perigee: 328.4990°
revolutions per day: 15.07099111
mean anomaly at epoch: 31.3222°
orbit number at epoch: 91244

The dashed part of the orbit path shows where the satellite is in the earth's shadow,  

DLR